Weather History for Fort Myers, FL

Change the Weather History Date:

Saturday, October 27, 2012

  Actual Average Record
Temperature  
Mean Temperature 78 °F 76 °F  
Max Temperature 85 °F 85 °F 92 °F (2010)
Min Temperature 71 °F 66 °F 48 °F (1903)
Degree Days  
Heating Degree Days 0 0  
Month to date heating degree days 0 0  
Since 1 July heating degree days 0 0  
Cooling Degree Days 13 11  
Month to date cooling degree days 414 361  
Year to date cooling degree days 4090 3607  
Growing Degree Days 28 (Base 50)    
Moisture  
Dew Point 62 °F    
Average Humidity 61    
Maximum Humidity 73    
Minimum Humidity 43    
Precipitation  
Precipitation 0.00 in 0.08 in 2.31 in (1908)
Month to date precipitation 4.93 2.61  
Year to date precipitation 46.77 51.99  
Sea Level Pressure  
Sea Level Pressure 29.65 in    
Wind  
Wind Speed 15 mph (NW)    
Max Wind Speed 28 mph    
Max Gust Speed 37 mph    
Visibility 10 miles    
Events      
T = Trace of Precipitation, MM = Missing Value Source: NWS Daily Summary

Daily Weather History Graph

Daily Weather History Graph

Search for Another Location

Airport:

Trip Planner

Search our weather history database for the weather conditions in past years. The results will help you decide how hot, cold, wet, or windy it might be!

Date:

Astronomy

Oct. 27, 2012 Rise Set
Actual Time 7:33 AM EDT 6:48 PM EDT
Civil Twilight 7:10 AM EDT 7:11 PM EDT
Nautical Twilight 6:42 AM EDT 7:39 PM EDT
Astronomical Twilight 6:15 AM EDT 8:06 PM EDT
Moon 5:27 PM EDT (10/27) 5:36 AM EDT (10/27)
Length of Visible Light 12h 01m
Length of Day
11h 14m
Waxing Gibbous, 96% of the Moon is Illuminated
Oct 27
Waxing Gibbous
Oct 29
Full
Nov 6
Last Quarter
Nov 13
New
Nov 20
First Quarter

Hourly Weather History & Observations

Time (EDT) Temp. Heat Index Dew Point Humidity Pressure Visibility Wind Dir Wind Speed Gust Speed Precip Events Conditions
12:53 AM 73.9 °F - 63.0 °F 68% 29.65 in 10.0 mi NNW 16.1 mph - N/A   Clear
1:53 AM 73.0 °F - 63.0 °F 71% 29.64 in 10.0 mi NW 15.0 mph 23.0 mph N/A   Clear
2:53 AM 72.0 °F - 63.0 °F 73% 29.62 in 10.0 mi NW 13.8 mph 21.9 mph N/A   Clear
3:53 AM 72.0 °F - 63.0 °F 73% 29.61 in 10.0 mi NW 12.7 mph - N/A   Clear
4:53 AM 72.0 °F - 63.0 °F 73% 29.60 in 10.0 mi NW 12.7 mph - N/A   Clear
5:53 AM 72.0 °F - 62.1 °F 71% 29.60 in 10.0 mi NW 12.7 mph - N/A   Clear
6:53 AM 71.1 °F - 61.0 °F 70% 29.62 in 10.0 mi WNW 12.7 mph - N/A   Clear
7:53 AM 73.0 °F - 60.1 °F 64% 29.64 in 10.0 mi NW 15.0 mph - N/A   Clear
8:53 AM 75.0 °F - 61.0 °F 62% 29.65 in 10.0 mi NW 17.3 mph 24.2 mph N/A   Clear
9:53 AM 78.1 °F - 61.0 °F 56% 29.66 in 10.0 mi NW 19.6 mph 31.1 mph N/A   Clear
10:53 AM 80.1 °F 81.2 °F 62.1 °F 54% 29.68 in 10.0 mi NNW 20.7 mph 28.8 mph N/A   Clear
11:53 AM 82.9 °F 83.3 °F 61.0 °F 47% 29.68 in 10.0 mi NW 24.2 mph 33.4 mph N/A   Clear
12:53 PM 84.0 °F 84.5 °F 62.1 °F 47% 29.67 in 10.0 mi NW 19.6 mph 25.3 mph N/A   Partly Cloudy
1:53 PM 84.0 °F 83.8 °F 59.0 °F 43% 29.64 in 10.0 mi NW 24.2 mph 34.5 mph N/A   Clear
2:53 PM 82.9 °F 83.3 °F 61.0 °F 47% 29.63 in 10.0 mi NW 19.6 mph 31.1 mph N/A   Clear
3:53 PM 82.9 °F 84.0 °F 63.0 °F 51% 29.64 in 10.0 mi NW 19.6 mph 28.8 mph N/A   Partly Cloudy
4:53 PM 82.0 °F 82.4 °F 60.1 °F 47% 29.64 in 10.0 mi NW 15.0 mph 26.5 mph N/A   Clear
5:53 PM 79.0 °F - 62.1 °F 56% 29.64 in 10.0 mi NW 13.8 mph 23.0 mph N/A   Clear
6:53 PM 77.0 °F - 59.0 °F 54% 29.65 in 10.0 mi NW 16.1 mph 26.5 mph N/A   Clear
7:53 PM 75.0 °F - 60.1 °F 60% 29.68 in 10.0 mi NW 13.8 mph 23.0 mph N/A   Clear
8:53 PM 73.9 °F - 62.1 °F 66% 29.71 in 10.0 mi NW 15.0 mph 21.9 mph N/A   Clear
9:53 PM 73.9 °F - 63.0 °F 68% 29.73 in 10.0 mi NW 10.4 mph - N/A   Clear
10:53 PM 73.0 °F - 64.0 °F 73% 29.74 in 10.0 mi NW 9.2 mph - N/A   Clear